Van Vleck, TX

6:49 AM CDT on October 01, 2016 (GMT -0500)
Bay City

Weather History for KBYY - May, 2013

Change the Weather History Date:

Wednesday, May 8, 2013

  Actual Average (KLBX) Record (KLBX)
Temperature  
Mean Temperature 71 °F -  
Max Temperature 82 °F 81 °F 90 °F (2008)
Min Temperature 60 °F 66 °F 57 °F (1999)
Cooling Degree Days 6    
Growing Degree Days 21 (Base 50)    
Moisture  
Dew Point 65 °F    
Average Humidity 81    
Maximum Humidity 100    
Minimum Humidity 52    
Precipitation  
Precipitation 0.00 in - - ()
Sea Level Pressure  
Sea Level Pressure 30.01 in    
Wind  
Wind Speed 7 mph (SE)    
Max Wind Speed 15 mph    
Max Gust Speed 22 mph    
Visibility 9 miles    
Events      
Averages and records for this station are not official NWS values.
T = Trace of Precipitation, MM = Missing Value Source: NWS Daily Summary

Daily Weather History Graph

Daily Weather History Graph

Search for Another Location

Airport or City:

Trip Planner

Search our weather history database for the weather conditions in past years. The results will help you decide how hot, cold, wet, or windy it might be!

Date:

Astronomy

May. 08, 2013 Rise Set
Actual Time 6:36 AM CDT 8:03 PM CDT
Civil Twilight 6:10 AM CDT 8:29 PM CDT
Nautical Twilight 5:40 AM CDT 8:59 PM CDT
Astronomical Twilight 5:08 AM CDT 9:31 PM CDT
Moon 5:39 AM CDT (5/8) 7:06 PM CDT (5/8)
Length of Visible Light 14h 18m
Length of Day
13h 27m
Waning Crescent, 2% of the Moon is Illuminated
May 8
Waning Crescent
May 9
New
May 17
First Quarter
May 24
Full
May 31
Last Quarter

Hourly Weather History & Observations

Time (CDT) Temp. Heat Index Dew Point Humidity Pressure Visibility Wind Dir Wind Speed Gust Speed Precip Events Conditions
12:15 AM 65.1 °F - 65.1 °F 100% 30.03 in 10.0 mi SSE 5.8 mph - N/A   Clear
12:35 AM 64.8 °F - 64.8 °F 100% 30.02 in 10.0 mi SSE 5.8 mph - N/A   Clear
12:55 AM 64.4 °F - 64.4 °F 100% 30.02 in 10.0 mi SE 5.8 mph - N/A   Clear
1:15 AM 64.2 °F - 64.2 °F 100% 30.01 in 10.0 mi SE 5.8 mph - N/A   Clear
1:35 AM 64.2 °F - 64.2 °F 100% 30.01 in 10.0 mi SSE 4.6 mph - N/A   Clear
1:55 AM 63.3 °F - 63.3 °F 100% 30.00 in 10.0 mi SSE 3.5 mph - N/A   Clear
2:15 AM 63.5 °F - 63.5 °F 100% 29.99 in 10.0 mi SE 6.9 mph - N/A   Clear
2:35 AM 64.2 °F - 64.2 °F 100% 30.00 in 10.0 mi Calm Calm - N/A   Clear
2:55 AM 63.5 °F - 63.5 °F 100% 30.00 in 10.0 mi Calm Calm - N/A   Clear
3:15 AM 62.1 °F - 62.1 °F 100% 29.98 in 10.0 mi SE 5.8 mph - N/A   Clear
3:35 AM 62.4 °F - 62.4 °F 100% 29.98 in 10.0 mi Calm Calm - N/A   Clear
3:55 AM 63.1 °F - 63.1 °F 100% 29.98 in 10.0 mi SE 4.6 mph - N/A   Clear
4:15 AM 62.8 °F - 62.8 °F 100% 29.98 in 10.0 mi SE 4.6 mph - N/A   Clear
4:35 AM 63.3 °F - 63.3 °F 100% 29.98 in 10.0 mi SSE 4.6 mph - N/A   Clear
4:55 AM 63.7 °F - 63.7 °F 100% 29.98 in 10.0 mi Calm Calm - N/A   Clear
5:15 AM 62.4 °F - 62.4 °F 100% 29.99 in 5.0 mi ENE 3.5 mph - N/A   Clear
5:35 AM 60.8 °F - 60.8 °F 100% 29.98 in 0.8 mi ESE 4.6 mph - N/A   Mist
5:55 AM 61.7 °F - 61.7 °F 100% 29.99 in 7.0 mi SSE 4.6 mph - N/A   Clear
6:15 AM 63.0 °F - 63.0 °F 100% 29.99 in 7.0 mi ESE 3.5 mph - N/A   Clear
6:35 AM 62.4 °F - 62.4 °F 100% 30.01 in 2.0 mi Calm Calm - N/A   Clear
6:55 AM 62.6 °F - 62.6 °F 100% 30.02 in 1.0 mi Calm Calm - N/A   Scattered Clouds
7:15 AM 62.2 °F - 62.2 °F 100% 30.02 in 5.0 mi Calm Calm - N/A   Scattered Clouds
7:35 AM 62.1 °F - 62.1 °F 100% 30.03 in 10.0 mi Calm Calm - N/A   Clear
7:55 AM 63.5 °F - 63.5 °F 100% 30.02 in 7.0 mi SE 3.5 mph - N/A   Clear
8:15 AM 66.7 °F - 66.7 °F 100% 30.03 in 10.0 mi SE 4.6 mph - N/A   Clear
8:35 AM 69.1 °F - 69.1 °F 100% 30.03 in 10.0 mi SE 5.8 mph - N/A   Clear
8:55 AM 71.6 °F - 71.6 °F 100% 30.04 in 10.0 mi SSE 9.2 mph - N/A   Scattered Clouds
9:15 AM 72.5 °F - 72.3 °F 99% 30.05 in 10.0 mi South 10.4 mph - N/A   Scattered Clouds
9:35 AM 72.9 °F - 67.6 °F 84% 30.05 in 10.0 mi South 10.4 mph - N/A   Scattered Clouds
9:55 AM 75.2 °F - 66.0 °F 73% 30.07 in 10.0 mi SSE 11.5 mph - N/A   Scattered Clouds
10:15 AM 77.2 °F - 65.3 °F 67% 30.07 in 10.0 mi South 12.7 mph - N/A   Mostly Cloudy
10:35 AM 77.2 °F - 64.9 °F 66% 30.07 in 10.0 mi SSE 12.7 mph - N/A   Mostly Cloudy
10:55 AM 77.7 °F - 64.6 °F 64% 30.07 in 10.0 mi South 10.4 mph - N/A   Scattered Clouds
11:15 AM 77.7 °F - 63.9 °F 62% 30.07 in 10.0 mi SSE 12.7 mph 17.3 mph N/A   Scattered Clouds
11:35 AM 78.4 °F - 63.9 °F 61% 30.07 in 10.0 mi South 13.8 mph 17.3 mph N/A   Mostly Cloudy
11:55 AM 79.2 °F - 64.2 °F 60% 30.07 in 10.0 mi South 12.7 mph 18.4 mph N/A   Mostly Cloudy
12:15 PM 79.7 °F - 63.9 °F 58% 30.06 in 10.0 mi South 13.8 mph 17.3 mph N/A   Mostly Cloudy
12:35 PM 79.9 °F - 64.0 °F 58% 30.06 in 10.0 mi SE 10.4 mph 18.4 mph N/A   Mostly Cloudy
12:55 PM 81.0 °F 82.5 °F 64.0 °F 56% 30.05 in 10.0 mi SSE 12.7 mph 17.3 mph N/A   Scattered Clouds
1:15 PM 81.1 °F 82.8 °F 64.4 °F 57% 30.04 in 10.0 mi SSE 15.0 mph 20.7 mph N/A   Clear
1:35 PM 81.7 °F 83.2 °F 64.0 °F 55% 30.03 in 10.0 mi SE 10.4 mph 17.3 mph N/A   Clear
1:55 PM 82.0 °F 83.3 °F 63.5 °F 53% 30.03 in 10.0 mi SSE 13.8 mph 18.4 mph N/A   Clear
2:15 PM 81.9 °F 83.2 °F 63.5 °F 54% 30.02 in 10.0 mi South 10.4 mph 18.4 mph N/A   Clear
2:35 PM 81.7 °F 82.9 °F 62.8 °F 53% 30.02 in 10.0 mi SE 12.7 mph 21.9 mph N/A   Clear
2:55 PM 81.5 °F 82.7 °F 62.8 °F 53% 30.01 in 10.0 mi SSE 11.5 mph 20.7 mph N/A   Clear
3:15 PM 81.5 °F 82.7 °F 63.0 °F 53% 30.01 in 10.0 mi SE 12.7 mph 19.6 mph N/A   Clear
3:35 PM 81.9 °F 83.2 °F 63.5 °F 54% 30.00 in 10.0 mi ESE 15.0 mph 18.4 mph N/A   Clear
3:55 PM 82.0 °F 83.1 °F 62.6 °F 52% 29.99 in 10.0 mi SE 11.5 mph 18.4 mph N/A   Clear
4:15 PM 81.5 °F 82.5 °F 62.1 °F 52% 29.98 in 10.0 mi SE 13.8 mph 18.4 mph N/A   Clear
4:35 PM 81.1 °F 82.4 °F 63.1 °F 54% 29.98 in 10.0 mi SSE 12.7 mph 17.3 mph N/A   Clear
4:55 PM 81.1 °F 82.5 °F 63.3 °F 55% 29.98 in 10.0 mi SSE 12.7 mph 17.3 mph N/A   Clear
5:15 PM 80.6 °F 82.0 °F 63.7 °F 56% 29.98 in 10.0 mi SE 12.7 mph 18.4 mph N/A   Clear
5:35 PM 79.7 °F - 64.4 °F 59% 29.98 in 10.0 mi SSE 15.0 mph 18.4 mph N/A   Clear
5:55 PM 78.8 °F - 64.2 °F 61% 29.98 in 10.0 mi SE 11.5 mph - N/A   Clear
6:15 PM 77.7 °F - 64.4 °F 63% 29.98 in 10.0 mi SE 12.7 mph - N/A   Clear
6:35 PM 77.2 °F - 64.6 °F 65% 29.98 in 10.0 mi SE 12.7 mph - N/A   Scattered Clouds
6:55 PM 76.5 °F - 64.8 °F 67% 29.98 in 10.0 mi SSE 10.4 mph - N/A   Mostly Cloudy
7:15 PM 74.8 °F - 64.9 °F 71% 29.98 in 10.0 mi SE 12.7 mph - N/A   Mostly Cloudy
7:35 PM 74.1 °F - 65.5 °F 74% 29.98 in 10.0 mi SE 10.4 mph - N/A   Mostly Cloudy
7:55 PM 73.2 °F - 66.0 °F 78% 29.97 in 10.0 mi ESE 11.5 mph 16.1 mph N/A   Mostly Cloudy
8:15 PM 72.3 °F - 66.4 °F 82% 29.97 in 10.0 mi ESE 9.2 mph - N/A   Mostly Cloudy
8:35 PM 71.8 °F - 66.6 °F 84% 29.98 in 10.0 mi SE 10.4 mph - N/A   Scattered Clouds
8:55 PM 71.1 °F - 66.7 °F 86% 29.98 in 10.0 mi ESE 8.1 mph - N/A   Scattered Clouds
9:15 PM 70.7 °F - 66.9 °F 88% 29.98 in 10.0 mi ESE 6.9 mph - N/A   Scattered Clouds
9:35 PM 70.0 °F - 68.7 °F 96% 29.98 in 10.0 mi ESE 6.9 mph - N/A   Scattered Clouds
9:55 PM 69.6 °F - 69.6 °F 100% 29.98 in 10.0 mi ESE 6.9 mph - N/A   Clear
10:15 PM 69.3 °F - 69.3 °F 100% 29.99 in 10.0 mi ESE 5.8 mph - N/A   Clear
10:35 PM 68.7 °F - 68.7 °F 100% 29.99 in 10.0 mi SE 4.6 mph - N/A   Clear
11:15 PM 68.5 °F - 68.5 °F 100% 29.98 in 10.0 mi ESE 6.9 mph - N/A   Scattered Clouds
11:55 PM 70.3 °F - 70.3 °F 100% 29.99 in 10.0 mi SE 6.9 mph - N/A   Overcast